BEESAT 3

Last updated on Thu Jul 19 2018 00:21:02 GMT+0000 (Coordinated Universal Time)

1 39135U 13015F 18199.60757178 .00000636 00000-0 42183-4 0 9997 2 39135 64.8694 39.0294 0019089 237.6498 122.2780 15.16751815289026
UTC large
Height (km)
Speed (km/s)
/
Latitude / Longitude
Inclination (degrees)
Orbital Period (minutes)
Azimuth
Elevation
Range (km)
Doppler Factor

Next 0 passes for location: London (51.5072 / 0.1276)

Sorry there are no passes over London.